FENGYUN 1C DEB, 35217

Orbit data source: Space-Track

FENGYUN 1C DEB, 35217 is space debris in SSO originally from a launch on Mon, 10 May 1999 UTC launched from the Taiyaun Space Center, China (TSC). Fengyun 1C debris stems from the Chinese weather satellite Fengyun-1C, which was intentionally destroyed by a Chinese anti-satellite missile in 2007. This event dramatically increased the amount of space debris, with thousands of trackable fragments posing hazards to satellites and human spaceflight. The Fengyun 1C debris cloud has become a focal point in discussions about space sustainability and the need for international regulations to prevent the creation of new debris.

Loading next visibility...
Identifier
35217, 1999-025DPZ
Orbit
SSO
Country
Flag of CNCN / PRC
Related business
Manufacturer
Unknown
Mission
Spacecraft
Bus & Motor
Unknown
Mass
Unknown
Launch date (UTC)
1999-05-10 (27 years ago)
Launch vehicle
Unknown
Launch site
Taiyaun Space Center, China (TSC)
Object type
Payload
Rocket body
Debris
Shape & HBR
Unknown shape, 0.1 m
Radar Cross Section
Small (<0.1 m²)

Expand to show TLE details & history
Last TLE update: 4 days ago

TLE from 4 days ago
0 FENGYUN 1C DEB
1 35217U 99025DPZ 26234.17673624  .00001776  00000-0  18758-2 0  9998
2 35217 101.8787 206.8770 0300436  70.6265 292.7084 13.58478988646463
Epoch: 2026-08-22T04:14Z
TLE epoch observation values (Epoch: 2026-08-22T04:14:30.011Z)
Latitude
0.00005°
Longitude
172.76105°
Altitude
963.673 km
Speed
7.41 km/s
True Right ascension
13h 47m 30s
True Declination
0° 00' 00"
Sunlit
Object was in daylight at epoch
Visualization orbit readout
Latitude
Unknown
Longitude
Unknown
Altitude
Unknown
Speed
Unknown
Apparent Right ascension
Unknown
Apparent Declination
Unknown
Sunlit
N/A
Visualization observer readout
Local Sidereal Time
14:16:38
Azimuth
Unknown
Elevation
Unknown
Doppler factor
Unknown
Orbital elements
Apogee altitude
1,261.462 km
Perigee altitude
815.809 km
Semi-major axis
7,416.773 km
Eccentricity
0.03004
Inclination
101.8787°
RAAN
206.877°
Arg. of periapsis
70.6265°
True anomaly
289.48754°
Mean anomaly
292.7084°
Eccentric anomaly
291.10247°
Mean motion
3.39798 °/min
Orbital period
105.95 mins
BSTAR
0.0018758
Loading maneuver chart data...
Computing Atmospheric mass density...

Documentation

Showing up to 5 results
|